This is the latest recevied weather packets stored in our database for station/object K5MGY. If no packets are shown the sender has not sent any weather packets the latest 10 day(s).
| Time | Temp. | Humidity | Pressure | Rain* | Wind** | Luminosity | Snow |
|---|---|---|---|---|---|---|---|
| 1777988327 | 22.78° C | 82% | 1028.9 hPa | 0 mm | - | 79 W/m² | - |
| 1777988024 | 22.78° C | 82% | 1029 hPa | 0 mm | - | 96 W/m² | - |
| 1777987719 | 22.22° C | 83% | 1029 hPa | 0 mm | - | 80 W/m² | - |
| 1777987417 | 22.22° C | 84% | 1028.9 hPa | 0 mm | - | 94 W/m² | - |
| 1777987114 | 22.22° C | 84% | 1029 hPa | 0 mm | - | 59 W/m² | - |
| 1777986811 | 22.22° C | 84% | 1029.2 hPa | 0 mm | - | 42 W/m² | - |
| 1777986509 | 21.67° C | 85% | 1028.9 hPa | 0 mm | - | 38 W/m² | - |
| 1777986207 | 21.67° C | 85% | 1029.1 hPa | 0 mm | - | 43 W/m² | - |
| 1777985904 | 21.67° C | 86% | 1029 hPa | 0 mm | - | 42 W/m² | - |
| 1777985601 | 21.67° C | 86% | 1028.9 hPa | 0 mm | - | 41 W/m² | - |
| 1777985297 | 21.11° C | 86% | 1028.7 hPa | 0 mm | - | 33 W/m² | - |
| 1777984994 | 21.11° C | 86% | 1028.6 hPa | 0 mm | - | 29 W/m² | - |
| 1777984690 | 21.11° C | 87% | 1028.5 hPa | 0 mm | - | 28 W/m² | - |
| 1777984387 | 21.11° C | 87% | 1028.8 hPa | 0 mm | - | 21 W/m² | - |
| 1777984083 | 21.11° C | 87% | 1028.5 hPa | 0 mm | - | 18 W/m² | - |
| 1777983781 | 21.11° C | 87% | 1028.6 hPa | 0 mm | - | 19 W/m² | - |
| 1777983477 | 21.11° C | 87% | 1028.8 hPa | 0 mm | - | 17 W/m² | - |
| 1777983174 | 21.11° C | 87% | 1028.4 hPa | 0 mm | - | 13 W/m² | - |
| 1777982870 | 21.11° C | 87% | 1028.2 hPa | 0 mm | - | 11 W/m² | - |
| 1777982566 | 21.11° C | 87% | 1028.2 hPa | 0 mm | - | 9 W/m² | - |
| 1777982265 | 20.56° C | 88% | 1028.6 hPa | 0 mm | - | 7 W/m² | - |
| 1777981963 | 20.56° C | 88% | 1028.3 hPa | 0 mm | - | 4 W/m² | - |
| 1777981660 | 20.56° C | 88% | 1028.3 hPa | 0 mm | - | 2 W/m² | - |
| 1777981356 | 20.56° C | 88% | 1028.4 hPa | 0 mm | - | 1 W/m² | - |
| 1777981053 | 20.56° C | 87% | 1028.3 hPa | 0 mm | - | 1 W/m² | - |
* Rain latest hour (hover to see other rain measurements)
** Current wind speed in m/s (hover to see current wind gust speed)